Location: Lane
(33.5226°N, 79.8788°W)
Time: 06:02:19
(UTC+00:00)

Vanguard 2 - Pass Details

Date: 06 October 2022
Orbit: 553 x 2933 km, 32.9° (Epoch: 26 November)

Event Time Altitude Azimuth Distance (km) Brightness Sun altitude
Rises 19:49:25 0° 273° (W) 4,937 12.3 35.5°
Reaches altitude 10° 19:52:11 10° 273° (W) 4,214 12.1 35.0°
Maximum altitude 20:04:40 86° 187° (S) 2,520 10.7 32.9°
Drops below altitude 10° 20:22:32 10° 100° (E) 5,760 11.7 29.7°
Sets 20:27:02 0° 101° (E) 6,763 11.9 28.9°
